Stuart, FL

1:19 PM EST on December 15, 2017 (GMT -0500)
Witham

Weather History for KSUA - November, 2011

Change the Weather History Date:

Monday, November 28, 2011

  Actual Average Record
Temperature  
Mean Temperature 67 °F -  
Max Temperature 75 °F 80 °F 92 °F (1948)
Min Temperature 59 °F 64 °F 36 °F (1956)
Cooling Degree Days 2    
Growing Degree Days 17 (Base 50)    
Moisture  
Dew Point 67 °F    
Average Humidity 98    
Maximum Humidity 100    
Minimum Humidity 78    
Precipitation  
Precipitation 0.01 in - - ()
Sea Level Pressure  
Sea Level Pressure 29.95 in    
Wind  
Wind Speed 8 mph (South)    
Max Wind Speed 21 mph    
Max Gust Speed 31 mph    
Visibility 9 miles    
Events Rain    
Averages and records for this station are not official NWS values.
T = Trace of Precipitation, MM = Missing Value Source: NWS Daily Summary

Daily Weather History Graph

Daily Weather History Graph

Search for Another Location

Airport or City:

Trip Planner

Search our weather history database for the weather conditions in past years. The results will help you decide how hot, cold, wet, or windy it might be!

Date:

Astronomy

Nov. 28, 2011 Rise Set
Actual Time 6:50 AM EST 5:26 PM EST
Civil Twilight 6:25 AM EST 5:51 PM EST
Nautical Twilight 5:57 AM EST 6:20 PM EST
Astronomical Twilight 5:28 AM EST 6:48 PM EST
Moon 10:01 AM EST (11/28) 9:07 PM EST (11/28)
Length of Visible Light 11h 26m
Length of Day
10h 35m
Waxing Crescent, 15% of the Moon is Illuminated
Nov 28
Waxing Crescent
Dec 2
First Quarter
Dec 10
Full
Dec 17
Last Quarter
Dec 24
New

Hourly Weather History & Observations

Time (EST) Temp. Dew Point Humidity Pressure Visibility Wind Dir Wind Speed Gust Speed Precip Events Conditions
12:15 AM 68.0 °F 64.4 °F 88% 30.01 in 10.0 mi SSE 4.6 mph - N/A   Mostly Cloudy
12:35 AM 68.0 °F 68.0 °F 100% 30.00 in 10.0 mi SE 8.1 mph - N/A   Mostly Cloudy
12:55 AM 68.0 °F 68.0 °F 100% 29.99 in 10.0 mi ESE 11.5 mph - N/A   Scattered Clouds
1:15 AM 68.0 °F 68.0 °F 100% 29.99 in 10.0 mi ESE 9.2 mph - N/A   Scattered Clouds
1:35 AM 68.0 °F 68.0 °F 100% 29.99 in 10.0 mi ESE 12.7 mph - N/A   Mostly Cloudy
1:55 AM 68.0 °F 68.0 °F 100% 29.98 in 10.0 mi ESE 10.4 mph - N/A   Scattered Clouds
2:15 AM 66.2 °F 66.2 °F 100% 29.97 in 10.0 mi ESE 8.1 mph - N/A   Clear
2:35 AM 66.2 °F 66.2 °F 100% 29.96 in 10.0 mi ESE 8.1 mph - N/A   Mostly Cloudy
2:55 AM 66.2 °F 66.2 °F 100% 29.96 in 7.0 mi SE 6.9 mph - 0.01 in Rain Light Rain
3:15 AM 64.4 °F 64.4 °F 100% 29.95 in 10.0 mi SSE 6.9 mph - N/A   Mostly Cloudy
3:35 AM 64.4 °F 64.4 °F 100% 29.95 in 10.0 mi South 5.8 mph - N/A   Scattered Clouds
3:55 AM 62.6 °F 62.6 °F 100% 29.95 in 10.0 mi SSE 5.8 mph - N/A   Mostly Cloudy
4:15 AM 62.6 °F 62.6 °F 100% 29.94 in 10.0 mi SSE 6.9 mph - N/A   Overcast
4:35 AM 64.4 °F 64.4 °F 100% 29.94 in 10.0 mi SSE 6.9 mph - N/A   Overcast
4:55 AM 66.2 °F 66.2 °F 100% 29.94 in 10.0 mi SSE 9.2 mph - N/A   Overcast
5:15 AM 66.2 °F 66.2 °F 100% 29.94 in 10.0 mi SSE 6.9 mph - N/A   Overcast
6:21 AM 62.6 °F - N/A% 29.95 in 10.0 mi SSE 4.6 mph - N/A   Scattered Clouds
6:47 AM 62.6 °F - N/A% 29.95 in 7.0 mi SE 4.6 mph - N/A   Mostly Cloudy
8:47 AM 68.0 °F 68.0 °F 100% 29.96 in 7.0 mi South 8.1 mph - N/A   Scattered Clouds
9:47 AM 75.2 °F 73.4 °F 94% 29.97 in 7.0 mi SSE 13.8 mph - N/A   Mostly Cloudy
10:47 AM 71.6 °F 71.6 °F 100% 29.96 in 5.0 mi SW 11.5 mph - N/A Rain Light Rain
11:27 AM 75.2 °F 73.4 °F 94% 29.95 in 6.0 mi SSE 19.6 mph 28.8 mph N/A Rain Rain Showers
11:47 AM 75.2 °F 68.0 °F 78% 29.95 in 7.0 mi South 20.7 mph 31.1 mph N/A   Mostly Cloudy
12:47 PM 68.0 °F 68.0 °F 100% 29.92 in 6.0 mi SSE 10.4 mph - N/A Rain Light Rain Showers
1:47 PM 73.4 °F 73.4 °F 100% 29.91 in 8.0 mi South 9.2 mph - N/A   Mostly Cloudy
2:47 PM 75.2 °F 75.2 °F 100% 29.89 in 8.0 mi South 9.2 mph - N/A Rain Light Rain Showers
3:47 PM 71.6 °F 71.6 °F 100% 29.88 in 8.0 mi SSE 9.2 mph - N/A   Scattered Clouds
4:47 PM 75.2 °F 73.4 °F 94% 29.89 in 10.0 mi South 6.9 mph - N/A   Scattered Clouds
5:47 PM 71.6 °F 71.6 °F 100% 29.90 in 10.0 mi SSE 8.1 mph - N/A   Partly Cloudy
6:47 PM 68.0 °F 68.0 °F 100% 29.91 in 10.0 mi SSE 6.9 mph - N/A   Partly Cloudy
7:15 PM 68.0 °F - N/A% 29.92 in 10.0 mi SSE 6.9 mph - N/A   Scattered Clouds
7:35 PM 68.0 °F - N/A% 29.92 in 10.0 mi SSE 6.9 mph - N/A   Scattered Clouds
7:55 PM 66.2 °F - N/A% 29.92 in 10.0 mi South 8.1 mph - N/A   Clear
8:15 PM 66.2 °F - N/A% 29.93 in 10.0 mi WSW 3.5 mph - N/A   Scattered Clouds
8:35 PM 64.4 °F - N/A% 29.93 in 10.0 mi SW 4.6 mph - N/A   Clear
9:15 PM 64.4 °F - N/A% 29.94 in 10.0 mi West 8.1 mph - N/A   Mostly Cloudy
9:35 PM 62.6 °F - N/A% 29.94 in 10.0 mi WNW 8.1 mph - N/A   Overcast
9:55 PM 62.6 °F - N/A% 29.95 in 10.0 mi WNW 9.2 mph - N/A   Overcast
10:15 PM 60.8 °F - N/A% 29.96 in 10.0 mi NW 9.2 mph 18.4 mph N/A   Overcast
10:35 PM 59.0 °F - N/A% 29.97 in 10.0 mi WNW 13.8 mph 19.6 mph N/A   Overcast
10:55 PM 59.0 °F 59.0 °F 100% 29.97 in 10.0 mi WNW 10.4 mph 17.3 mph N/A   Mostly Cloudy
11:15 PM 59.0 °F 59.0 °F 100% 29.96 in 10.0 mi WNW 8.1 mph - N/A   Mostly Cloudy
11:35 PM 59.0 °F 59.0 °F 100% 29.95 in 10.0 mi WNW 10.4 mph 16.1 mph N/A   Scattered Clouds